Weather History for Monroe, NC

Change the Weather History Date:

Saturday, August 2, 2014

  Actual Average (KCLT) Record (KCLT)
Temperature  
Mean Temperature 69 °F 78 °F  
Max Temperature 73 °F 89 °F 98 °F (1942)
Min Temperature 66 °F 68 °F 59 °F (1895)
Degree Days  
Heating Degree Days 0 0  
Month to date heating degree days 0  
Since 1 June heating degree days 3  
Since 1 July heating degree days 0  
Cooling Degree Days 4 13  
Month to date cooling degree days 26  
Year to date cooling degree days 920  
Since 1 June cooling degree days 757  
Growing Degree Days 19 (Base 50)    
Moisture  
Dew Point 64 °F    
Average Humidity 89    
Maximum Humidity 96    
Minimum Humidity 78    
Precipitation  
Precipitation 0.06 in 0.14 in 2.00 in (1969)
Month to date precipitation 0.28  
Year to date precipitation 24.66  
Snow  
Snow 0.00 in 0.00 in 0.00 in ()
Month to date snowfall 0.0  
Since 1 June snowfall 0.0  
Since 1 July snowfall 0.0  
Snow Depth -    
Sea Level Pressure  
Sea Level Pressure 30.11 in    
Wind  
Wind Speed 6 mph (NNE)    
Max Wind Speed 13 mph    
Max Gust Speed -    
Visibility 8 miles    
Events Rain    
T = Trace of Precipitation, MM = Missing Value Source: NWS Daily Summary

Daily Weather History Graph

Daily Weather History Graph

Search for Another Location

Airport:

Trip Planner

Search our weather history database for the weather conditions in past years. The results will help you decide how hot, cold, wet, or windy it might be!

Date:

Astronomy

Aug. 02, 2014 Rise Set
Actual Time 6:32 AM EDT 8:24 PM EDT
Civil Twilight 6:04 AM EDT 8:52 PM EDT
Nautical Twilight 5:31 AM EDT 9:25 PM EDT
Astronomical Twilight 4:55 AM EDT 10:01 PM EDT
Moon 12:36 PM EDT (8/2) 11:59 PM EDT (8/2)
Length of Visible Light 14h 47m
Length of Day
13h 51m
Waxing Crescent, 36% of the Moon is Illuminated
Aug 2
Waxing Crescent
Aug 3
First Quarter
Aug 10
Full
Aug 17
Last Quarter
Aug 25
New

Hourly Weather History & Observations

Time (EDT) Temp. Dew Point Humidity Pressure Visibility Wind Dir Wind Speed Gust Speed Precip Events Conditions
12:17 AM 68.0 °F 64.9 °F 90% 30.10 in 9.0 mi NNE 6.9 mph - N/A   Overcast
12:53 AM 68.0 °F 64.9 °F 90% 30.11 in 10.0 mi NNE 8.1 mph - N/A   Overcast
1:33 AM 66.9 °F 64.0 °F 90% 30.09 in 10.0 mi NE 9.2 mph - N/A   Overcast
1:53 AM 66.9 °F 64.0 °F 90% 30.11 in 10.0 mi NE 6.9 mph - N/A   Overcast
2:07 AM 66.9 °F 64.0 °F 90% 30.09 in 10.0 mi NE 5.8 mph - N/A   Overcast
2:45 AM 66.9 °F 64.0 °F 90% 30.09 in 10.0 mi NNE 8.1 mph - N/A   Overcast
2:53 AM 66.9 °F 64.0 °F 90% 30.09 in 10.0 mi NNE 6.9 mph - N/A   Overcast
3:31 AM 66.0 °F 64.0 °F 93% 30.08 in 10.0 mi NNE 5.8 mph - N/A   Overcast
4:53 AM 66.0 °F 64.0 °F 93% 30.08 in 10.0 mi NE 8.1 mph - N/A   Overcast
5:53 AM 66.0 °F 64.0 °F 93% 30.09 in 7.0 mi NE 9.2 mph - N/A   Overcast
6:53 AM 66.0 °F 64.0 °F 93% 30.10 in 5.0 mi NNE 6.9 mph - N/A   Overcast
7:53 AM 66.0 °F 64.0 °F 93% 30.11 in 6.0 mi NNE 9.2 mph - N/A   Overcast
8:42 AM 66.0 °F 63.0 °F 90% 30.11 in 10.0 mi NE 12.7 mph - N/A   Overcast
8:53 AM 66.0 °F 63.0 °F 90% 30.13 in 10.0 mi NE 8.1 mph - N/A   Overcast
9:18 AM 66.0 °F 63.0 °F 90% 30.12 in 6.0 mi NE 10.4 mph - N/A   Overcast
9:53 AM 66.9 °F 63.0 °F 87% 30.14 in 9.0 mi North 6.9 mph - N/A   Overcast
10:17 AM 66.9 °F 63.0 °F 87% 30.13 in 9.0 mi NNE 9.2 mph - N/A   Overcast
10:53 AM 66.9 °F 63.0 °F 87% 30.15 in 8.0 mi NNE 5.8 mph - 0.00 in Rain Light Rain
11:53 AM 68.0 °F 64.0 °F 87% 30.15 in 10.0 mi North 3.5 mph - 0.00 in   Overcast
12:53 PM 66.9 °F 64.0 °F 90% 30.14 in 5.0 mi NE 6.9 mph - 0.04 in Rain Rain
1:53 PM 68.0 °F 64.9 °F 90% 30.14 in 10.0 mi NE 5.8 mph - 0.01 in Rain Light Rain
2:53 PM 68.0 °F 64.9 °F 90% 30.14 in 8.0 mi NNW 5.8 mph - 0.00 in Rain Light Rain
3:53 PM 69.1 °F 64.9 °F 87% 30.12 in 9.0 mi NE 5.8 mph - 0.01 in Rain Light Rain
4:43 PM 71.1 °F 66.0 °F 84% 30.09 in 10.0 mi NNE 8.1 mph - 0.00 in   Overcast
4:53 PM 71.1 °F 64.9 °F 81% 30.10 in 10.0 mi NNE 5.8 mph - 0.00 in   Overcast
5:53 PM 72.0 °F 64.9 °F 78% 30.10 in 10.0 mi NNE 4.6 mph - N/A   Overcast
6:17 PM 72.0 °F 64.9 °F 78% 30.09 in 10.0 mi NNE 4.6 mph - N/A   Overcast
6:53 PM 72.0 °F 64.9 °F 78% 30.08 in 10.0 mi NE 6.9 mph - N/A   Mostly Cloudy
7:38 PM 71.1 °F 66.0 °F 84% 30.09 in 10.0 mi Calm Calm - N/A   Mostly Cloudy
7:53 PM 70.0 °F 66.0 °F 87% 30.10 in 10.0 mi ENE 3.5 mph - N/A   Overcast
8:53 PM 69.1 °F 66.0 °F 90% 30.11 in 8.0 mi East 3.5 mph - N/A   Mostly Cloudy
9:11 PM 68.0 °F 66.0 °F 93% 30.10 in 6.0 mi Calm Calm - N/A   Scattered Clouds
9:53 PM 66.9 °F 64.9 °F 93% 30.11 in 4.0 mi Calm Calm - N/A   Clear
10:33 PM 66.9 °F 64.9 °F 93% 30.10 in 2.5 mi Calm Calm - N/A   Clear
10:48 PM 66.2 °F 64.4 °F 94% 30.11 in 1.2 mi Calm Calm - N/A   Clear
10:53 PM 66.0 °F 64.0 °F 93% 30.12 in 2.0 mi Calm Calm - N/A   Partly Cloudy
11:02 PM 66.9 °F 64.9 °F 93% 30.11 in 6.0 mi Calm Calm - N/A   Scattered Clouds
11:24 PM 66.0 °F 64.0 °F 93% 30.12 in 2.0 mi Calm Calm - N/A   Mostly Cloudy
11:28 PM 66.0 °F 64.9 °F 96% 30.12 in 3.0 mi NW 3.5 mph - N/A   Mostly Cloudy
11:41 PM 66.9 °F 64.9 °F 93% 30.13 in 7.0 mi NW 3.5 mph - N/A   Overcast
11:51 PM 66.2 °F 64.4 °F 94% 30.13 in 7.0 mi NNW 3.5 mph - N/A   Overcast
11:53 PM 68.0 °F 64.9 °F 90% 30.14 in 7.0 mi NNW 3.5 mph - N/A   Overcast